Weather History for MROC - November, 2012

Change the Weather History Date:

Monday, November 12, 2012

  Actual Average (MRPV) Record (MRPV)
Temperature  
Mean Temperature 76 °F -  
Max Temperature 85 °F 78 °F - (-1)
Min Temperature 66 °F 64 °F - (-1)
Cooling Degree Days 10    
Growing Degree Days 26 (Base 50)    
Moisture  
Dew Point 64 °F    
Average Humidity 75    
Maximum Humidity 94    
Minimum Humidity 38    
Precipitation  
Precipitation 0.04 in 0.12 in - ()
Sea Level Pressure  
Sea Level Pressure 29.95 in    
Wind  
Wind Speed 5 mph ()    
Max Wind Speed 9 mph    
Max Gust Speed -    
Visibility 7.8 miles    
Events Fog , Rain    
Averages and records for this station are not official NWS values.
T = Trace of Precipitation, MM = Missing Value Source: Averaged Metar Reports

Daily Weather History Graph

Daily Weather History Graph

Search for Another Location

Airport or City:

Trip Planner

Search our weather history database for the weather conditions in past years. The results will help you decide how hot, cold, wet, or windy it might be!

Date:

Astronomy

Nov. 12, 2012 Rise Set
Actual Time 5:30 AM CST 5:11 PM CST
Civil Twilight 5:08 AM CST 5:33 PM CST
Nautical Twilight 4:43 AM CST 5:58 PM CST
Astronomical Twilight 4:17 AM CST 6:24 PM CST
Moon 4:04 AM CST (11/12) 4:10 PM CST (11/12)
Length of Visible Light 12h 25m
Length of Day
11h 41m
Waning Crescent, 2% of the Moon is Illuminated
Nov 12
Waning Crescent
Nov 13
New
Nov 20
First Quarter
Nov 28
Full
Dec 6
Last Quarter

Hourly Weather History & Observations

Time (CST) Temp. Heat Index Dew Point Humidity Pressure Visibility Wind Dir Wind Speed Gust Speed Precip Events Conditions
12:00 AM 68 °F - 62 °F 77% 29.85 in 12 mi ENE 2.3 mph - -   Scattered Clouds
12:00 AM 68.0 °F - 62.6 °F 83% 30.02 in 6.2 mi ENE 2.3 mph - N/A   Partly Cloudy
1:00 AM 68.0 °F - 60.8 °F 78% 30.00 in 6.2 mi NE 5.8 mph - N/A   Partly Cloudy
2:00 AM 68.0 °F - 60.8 °F 78% 29.98 in 6.2 mi East 5.8 mph - N/A   Partly Cloudy
3:00 AM 68 °F - 61 °F 71% 29.80 in 12 mi East 6.9 mph - -   Scattered Clouds
3:00 AM 68.0 °F - 60.8 °F 78% 29.97 in 6.2 mi East 6.9 mph - N/A   Partly Cloudy
4:00 AM 68.0 °F - 60.8 °F 78% 29.97 in 6.2 mi NE 6.9 mph - N/A   Partly Cloudy
5:00 AM 66.2 °F - 60.8 °F 83% 29.98 in - ENE 8.1 mph - N/A   Clear
6:00 AM 67 °F - 61 °F 74% 29.86 in 12 mi ENE 3.5 mph - -   Partly Cloudy
6:00 AM 68.0 °F - 60.8 °F 78% 30.00 in - ENE 3.5 mph - N/A   Clear
7:00 AM 73.4 °F - 62.6 °F 69% 30.02 in - ENE 6.9 mph - N/A   Clear
8:00 AM 75.2 °F - 62.6 °F 65% 30.02 in - East 8.1 mph - N/A   Clear
9:00 AM 79 °F - 62 °F 46% 29.84 in 12 mi ESE 9.2 mph - -   Mostly Cloudy
9:00 AM 78.8 °F - 62.6 °F 57% 30.01 in - ESE 9.2 mph - N/A   Clear
10:00 AM 78.8 °F - 62.6 °F 57% 30.01 in - East 6.9 mph - N/A   Clear
11:00 AM 84.2 °F 85.0 °F 62.6 °F 48% 29.98 in 6.2 mi ESE 5.8 mph - N/A   Scattered Clouds
12:00 PM 82 °F - 61 °F 38% 29.80 in 12 mi ESE 6.9 mph - -   Scattered Clouds
12:00 PM 82.4 °F 82.9 °F 60.8 °F 48% 29.96 in 6.2 mi ESE 9.2 mph - N/A   Scattered Clouds
1:00 PM 78.8 °F - 69.8 °F 74% 0.26 in 6.2 mi SSW 5.8 mph - N/A   Mostly Cloudy
2:00 PM 78.8 °F - 69.8 °F 74% 29.93 in 6.2 mi WSW 8.1 mph - N/A   Mostly Cloudy
3:00 PM 75 °F - 69 °F 75% 29.77 in 12 mi WSW 8.1 mph - -   Partly Cloudy
3:00 PM 75.2 °F - 68.0 °F 78% 29.92 in 6.2 mi WSW 8.1 mph - N/A   Mostly Cloudy
4:00 PM 75.2 °F - 68.0 °F 78% 29.93 in 6.2 mi SW 8.1 mph - N/A   Scattered Clouds
4:16 PM 73.4 °F - 68.0 °F 83% 29.93 in 6.2 mi WSW 8.1 mph - N/A Rain Light Rain
5:00 PM 71.6 °F - 69.8 °F 94% 29.93 in 6.2 mi West 6.9 mph - N/A Fog Mostly Cloudy
6:00 PM 71 °F - 69 °F 90% 29.85 in 9 mi WSW 4.6 mph - - Fog Light Fog
6:00 PM 69.8 °F - 68.0 °F 94% 29.97 in 6.2 mi WSW 4.6 mph - N/A Fog Mostly Cloudy
6:14 PM 71.6 °F - 68.0 °F 88% 29.98 in 6.2 mi West 4.6 mph - N/A Rain Rain
7:00 PM 69.8 °F - 68.0 °F 94% 30.00 in 6.2 mi Calm Calm - N/A Fog , Rain Light Rain
8:00 PM 68.0 °F - 66.2 °F 94% 30.02 in 6.2 mi South 3.5 mph - N/A Fog Mostly Cloudy
9:00 PM 69 °F - 65 °F 84% 29.85 in 12 mi Calm Calm - -   Scattered Clouds
9:00 PM 69.8 °F - 66.2 °F 88% 30.04 in 6.2 mi Calm Calm - N/A   Mostly Cloudy
10:00 PM 69.8 °F - 62.6 °F 78% 30.03 in 6.2 mi East 8.1 mph - N/A   Partly Cloudy
11:00 PM 69.8 °F - 62.6 °F 78% 30.02 in 6.2 mi ENE 5.8 mph - N/A   Partly Cloudy